Stündliche Wetter Judziki

Heute, 5 März, Freitag

Zeit Temperatur Niederschläge Wind Luftdruck Luftfeuchtigkeit
00:00 -4°C° 0 mm 2 m/S 743 mmHg 81%
01:00 -4°C° 0 mm 2 m/S 743 mmHg 80%
02:00 -4°C° 0 mm 2 m/S 744 mmHg 79%
03:00 -4°C° 0 mm 2 m/S 744 mmHg 77%
04:00 -4°C° 0 mm 2 m/S 744 mmHg 76%
05:00 -4°C° 0 mm 2 m/S 744 mmHg 74%
06:00 -4°C° 0 mm 2 m/S 744 mmHg 74%
07:00 -4°C° 0 mm 2 m/S 745 mmHg 74%
08:00 -5°C° 0 mm 3 m/S 745 mmHg 74%
09:00 -4°C° 0 mm 3 m/S 745 mmHg 68%
10:00 -2°C° 0 mm 3 m/S 746 mmHg 62%
11:00 -2°C° 0 mm 4 m/S 746 mmHg 57%
12:00 -2°C° 0 mm 4 m/S 746 mmHg 49%
13:00 0°C° 0 mm 3 m/S 746 mmHg 41%
14:00 0°C° 0 mm 3 m/S 747 mmHg 33%
15:00 0°C° 0 mm 3 m/S 747 mmHg 35%
16:00 0°C° 0 mm 3 m/S 747 mmHg 38%
17:00 -1°C° 0 mm 2 m/S 747 mmHg 41%
18:00 -1°C° 0 mm 2 m/S 747 mmHg 47%
19:00 -2°C° 0 mm 3 m/S 747 mmHg 53%
20:00 -4°C° 0 mm 3 m/S 748 mmHg 60%
21:00 -4°C° 0.1 mm 3 m/S 748 mmHg 65%
22:00 -4°C° 0.1 mm 3 m/S 749 mmHg 71%
23:00 -4°C° 0.1 mm 4 m/S 749 mmHg 76%

Morgen, 6 März, Samstag

Zeit Temperatur Niederschläge Wind Luftdruck Luftfeuchtigkeit
00:00 -4°C° 0 mm 4 m/S 749 mmHg 74%
01:00 -5°C° 0 mm 4 m/S 750 mmHg 72%
02:00 -5°C° 0 mm 4 m/S 750 mmHg 69%
03:00 -5°C° 0 mm 4 m/S 750 mmHg 73%
04:00 -7°C° 0 mm 4 m/S 750 mmHg 76%
05:00 -7°C° 0 mm 4 m/S 750 mmHg 79%
06:00 -7°C° 0 mm 4 m/S 751 mmHg 74%
07:00 -6°C° 0 mm 3 m/S 751 mmHg 69%
08:00 -6°C° 0 mm 3 m/S 752 mmHg 64%
09:00 -5°C° 0 mm 3 m/S 752 mmHg 61%
10:00 -4°C° 0 mm 3 m/S 752 mmHg 57%
11:00 -2°C° 0 mm 3 m/S 752 mmHg 53%
12:00 -2°C° 0 mm 4 m/S 752 mmHg 51%
13:00 -1°C° 0 mm 4 m/S 752 mmHg 49%
14:00 -1°C° 0 mm 4 m/S 751 mmHg 47%
15:00 -1°C° 0 mm 4 m/S 751 mmHg 48%
16:00 -1°C° 0 mm 4 m/S 750 mmHg 50%
17:00 -1°C° 0 mm 5 m/S 750 mmHg 51%
18:00 -1°C° 0 mm 5 m/S 749 mmHg 55%
19:00 -2°C° 0 mm 5 m/S 748 mmHg 58%
20:00 -4°C° 0 mm 5 m/S 748 mmHg 61%
21:00 -4°C° 0 mm 6 m/S 747 mmHg 67%
22:00 -4°C° 0 mm 7 m/S 746 mmHg 72%
23:00 -4°C° 0 mm 7 m/S 745 mmHg 78%

übermorgen, 7 März, Sonntag

Zeit Temperatur Niederschläge Wind Luftdruck Luftfeuchtigkeit
00:00 -4°C° 0.2 mm 8 m/S 745 mmHg 83%
01:00 -4°C° 0.2 mm 9 m/S 744 mmHg 89%
02:00 -4°C° 0.2 mm 9 m/S 743 mmHg 95%
03:00 -4°C° 0.4 mm 9 m/S 743 mmHg 95%
04:00 -4°C° 0.4 mm 9 m/S 742 mmHg 95%
05:00 -4°C° 0.4 mm 9 m/S 741 mmHg 95%
06:00 -4°C° 0.5 mm 9 m/S 741 mmHg 95%
07:00 -4°C° 0.5 mm 8 m/S 741 mmHg 94%
08:00 -4°C° 0.5 mm 8 m/S 741 mmHg 94%
09:00 -3°C° 0.7 mm 7 m/S 741 mmHg 94%
10:00 -3°C° 0.7 mm 6 m/S 741 mmHg 95%
11:00 -3°C° 0.7 mm 6 m/S 741 mmHg 95%
12:00 -3°C° 0.6 mm 6 m/S 741 mmHg 95%
13:00 -3°C° 0.6 mm 6 m/S 741 mmHg 95%
14:00 -2°C° 0.6 mm 5 m/S 740 mmHg 94%
15:00 -2°C° 0.5 mm 5 m/S 740 mmHg 94%
16:00 -2°C° 0.5 mm 5 m/S 740 mmHg 94%
17:00 -4°C° 0.5 mm 5 m/S 740 mmHg 94%
18:00 -4°C° 0.3 mm 5 m/S 740 mmHg 92%
19:00 -4°C° 0.3 mm 4 m/S 740 mmHg 89%
20:00 -4°C° 0.3 mm 4 m/S 740 mmHg 87%
21:00 -5°C° 0 mm 3 m/S 740 mmHg 87%
22:00 -5°C° 0 mm 3 m/S 740 mmHg 87%
23:00 -6°C° 0 mm 3 m/S 740 mmHg 87%

8 März, Montag

Zeit Temperatur Niederschläge Wind Luftdruck Luftfeuchtigkeit
00:00 -6°C° 0 mm 3 m/S 740 mmHg 86%
01:00 -6°C° 0 mm 3 m/S 741 mmHg 84%
02:00 -6°C° 0 mm 3 m/S 741 mmHg 83%
03:00 -6°C° 0 mm 3 m/S 741 mmHg 84%
04:00 -6°C° 0 mm 3 m/S 741 mmHg 84%
05:00 -6°C° 0 mm 3 m/S 741 mmHg 84%
06:00 -6°C° 0 mm 3 m/S 741 mmHg 85%
07:00 -6°C° 0 mm 3 m/S 742 mmHg 85%
08:00 -6°C° 0 mm 3 m/S 742 mmHg 85%
09:00 -6°C° 0 mm 3 m/S 742 mmHg 80%
10:00 -5°C° 0 mm 3 m/S 743 mmHg 75%
11:00 -4°C° 0 mm 4 m/S 743 mmHg 70%
12:00 -4°C° 0.1 mm 4 m/S 744 mmHg 69%
13:00 -4°C° 0.1 mm 4 m/S 744 mmHg 67%
14:00 -3°C° 0.1 mm 4 m/S 744 mmHg 65%
15:00 -4°C° 0 mm 4 m/S 745 mmHg 66%
16:00 -4°C° 0 mm 4 m/S 745 mmHg 66%
17:00 -4°C° 0 mm 4 m/S 745 mmHg 66%
18:00 -5°C° 0 mm 4 m/S 746 mmHg 70%
19:00 -6°C° 0 mm 3 m/S 746 mmHg 73%
20:00 -6°C° 0 mm 3 m/S 747 mmHg 77%
21:00 -6°C° 0 mm 2 m/S 747 mmHg 77%
22:00 -6°C° 0 mm 2 m/S 748 mmHg 78%
23:00 -7°C° 0 mm 2 m/S 748 mmHg 78%

9 März, Dienstag

Zeit Temperatur Niederschläge Wind Luftdruck Luftfeuchtigkeit
00:00 -7°C° 0 mm 2 m/S 749 mmHg 78%
01:00 -7°C° 0 mm 2 m/S 749 mmHg 79%
02:00 -7°C° 0 mm 2 m/S 749 mmHg 80%
03:00 -8°C° 0 mm 2 m/S 750 mmHg 79%
04:00 -8°C° 0 mm 2 m/S 750 mmHg 79%
05:00 -8°C° 0 mm 2 m/S 750 mmHg 78%
06:00 -8°C° 0 mm 2 m/S 750 mmHg 78%
07:00 -9°C° 0 mm 3 m/S 751 mmHg 77%
08:00 -10°C° 0 mm 3 m/S 751 mmHg 76%
09:00 -9°C° 0 mm 3 m/S 751 mmHg 70%
10:00 -8°C° 0 mm 3 m/S 752 mmHg 64%
11:00 -7°C° 0 mm 3 m/S 752 mmHg 58%
12:00 -7°C° 0 mm 3 m/S 752 mmHg 54%
13:00 -5°C° 0 mm 2 m/S 753 mmHg 50%
14:00 -5°C° 0 mm 2 m/S 753 mmHg 45%
15:00 -5°C° 0 mm 2 m/S 753 mmHg 46%
16:00 -5°C° 0 mm 2 m/S 753 mmHg 47%
17:00 -3°C° 0 mm 1 m/S 753 mmHg 47%
18:00 -4°C° 0 mm 1 m/S 753 mmHg 51%
19:00 -4°C° 0 mm 1 m/S 753 mmHg 54%
20:00 -6°C° 0 mm 1 m/S 754 mmHg 58%
21:00 -6°C° 0 mm 1 m/S 754 mmHg 59%
22:00 -7°C° 0 mm 1 m/S 754 mmHg 60%
23:00 -7°C° 0 mm 1 m/S 754 mmHg 61%

10 März, Mittwoch

Zeit Temperatur Niederschläge Wind Luftdruck Luftfeuchtigkeit
00:00 -7°C° 0 mm 1 m/S 754 mmHg 63%
01:00 -8°C° 0 mm 2 m/S 754 mmHg 65%
02:00 -9°C° 0 mm 2 m/S 754 mmHg 67%
03:00 -9°C° 0 mm 2 m/S 754 mmHg 69%
04:00 -9°C° 0 mm 2 m/S 754 mmHg 71%
05:00 -9°C° 0 mm 2 m/S 754 mmHg 73%
06:00 -10°C° 0 mm 3 m/S 754 mmHg 73%
07:00 -10°C° 0 mm 3 m/S 754 mmHg 73%
08:00 -10°C° 0 mm 3 m/S 754 mmHg 72%
09:00 -9°C° 0 mm 4 m/S 754 mmHg 67%
10:00 -8°C° 0 mm 4 m/S 754 mmHg 62%
11:00 -7°C° 0 mm 5 m/S 753 mmHg 57%
12:00 -6°C° 0 mm 5 m/S 753 mmHg 54%
13:00 -5°C° 0 mm 5 m/S 753 mmHg 51%
14:00 -4°C° 0 mm 5 m/S 752 mmHg 48%
15:00 -4°C° 0 mm 5 m/S 752 mmHg 49%
16:00 -4°C° 0 mm 5 m/S 751 mmHg 49%
17:00 -4°C° 0 mm 5 m/S 750 mmHg 49%
18:00 -5°C° 0 mm 5 m/S 750 mmHg 50%
19:00 -5°C° 0 mm 5 m/S 749 mmHg 52%
20:00 -6°C° 0 mm 5 m/S 749 mmHg 53%
21:00 -6°C° 0 mm 6 m/S 748 mmHg 52%
22:00 -6°C° 0 mm 6 m/S 747 mmHg 50%
23:00 -7°C° 0 mm 7 m/S 747 mmHg 49%
Mehr zeigen

Wir brauchen deine Erlaubnis

Meteoprog und unser Service Anbieter werden persönliche Daten aufbewahren, so wie Cookies, Geräte Bezeichnung oder ähnliche Technologien von deinem Gerät und Prozess, so wie Persönliche Daten Inhalte und Werbungen, genauso wie social Media und den Verkehr zu analysieren.

  • Aufbewahrung und/oder Zugang zu deiner Geräte Informationen.

    Cookies, Geräte Bezeichnung oder andere Informationen, können aufbewahrt oder Zugang zu deinem Gerät erhalten, für den Grund, der oben angegeben wird.

  • Personalisierte Werbung und Inhalte, Messungen, Einblick in das Publikum und Produkt Entwicklung.

    Werbungen und Inhalte können personalisiert werden, basierend auf ein Profil. Mehr Daten können besser personalisierte Werbungen und Inhalte hinzufügen. Werbung und Inhalte können gezeigt und gemessen werden. Einblicke über das Publikum, welche die Werbung gesehen haben und den Inhalt, können abgeleitet werden. So wie Daten können genutzt werden, um es zu verbessern oder die Benutzer Erfahrung zu verbessern das System und die Software.

Wenn du “Ich stimme zu” klickst, erlaubst du uns, die Cookies zu benutzen die Geräte Bezeichnung, den Web oder ähnliche Technologien zu benutzen. Deine Settings, können in deinem Gerät bei deinem Browser geändert werden.

Für den bestimmten Zweck, berechtigten Interessen beruhen darauf, mehr als auf den Inhalt. Du kannst mehr darüber in unseren Privaten und Cookie Politik lesen.